Flag for U.S.A. Weather past 2 weeks in Charleston, West Virginia, U.S.A.

Now
70 °F

Fog.


Feels Like: 62 °F
Forecast: 70 / 85 °F
Wind: No wind

Location: Yeager Airport

Current Time: Aug 20, 2014 at 1:59:54 AM

Latest Report: Aug 20, 2014 at 12:54 AM


Visibility: 0 mi

Pressure: 29.88 "Hg

Humidity: 100%

Dew point: 70 °F

Location of CharlestonLocation

Historic Weather in Charleston — Graph

°F

Charleston temperature yesterday

Maximum temperature yesterday: 84 °F (at 5:54 PM)
Minimum temperature yesterday: 71 °F (at 2:54 AM)
Average temperature yesterday: 76 °F

Past Weeks' High & Low Weather Summary

 TemperatureHumidityPressure
High86 °F (Aug 5, 2:54 PM)100% (Aug 5, 12:54 AM)30.08 "Hg (Aug 5, 12:54 AM)
Low54 °F (Aug 16, 4:54 AM)34% (Aug 16, 2:54 PM)29.76 "Hg (Aug 12, 2:54 PM)
Average71 °F83%29.96 "Hg
* Reported Aug 5 12:54 AM — Aug 20 12:54 AM, Charleston, Weather by CustomWeather, © 2014

Note: Actual official high and low records may vary slightly from our data, if they occured in-between our weather recording intervals... More about our weather records

Advertising

Charleston weather history for previous 24 hours

 ConditionsComfort  
Time TempWeatherWind HumidityBarometerVisibility
12:54 AM
Aug 20
70 °FFog.No wind100%29.88 "Hg0 mi
11:54 PM
Aug 19
71 °FFog.No wind100%29.87 "Hg4 mi
10:54 PM72 °FFog.No wind100%29.88 "Hg4 mi
9:54 PM74 °FFog.5 mph94%29.86 "Hg5 mi
8:54 PM75 °FFog.3 mph94%29.85 "Hg5 mi
7:54 PM80 °FHaze.5 mph71%29.84 "Hg6 mi
6:54 PM83 °FHaze.7 mph68%29.82 "Hg6 mi
5:54 PM84 °FScattered clouds.3 mph63%29.82 "Hg7 mi
4:54 PM82 °FScattered clouds.6 mph70%29.81 "Hg7 mi
3:54 PM82 °FScattered clouds.No wind67%29.83 "Hg6 mi
2:54 PM82 °FScattered clouds.3 mph70%29.84 "Hg5 mi
1:54 PM82 °FPartly sunny.7 mph72%29.85 "Hg5 mi
12:54 PM81 °FBroken clouds.6 mph74%29.86 "Hg5 mi
11:54 AM76 °FFog.5 mph88%29.88 "Hg5 mi
10:54 AM74 °FFog.3 mph91%29.87 "Hg5 mi
9:54 AM74 °FFog.5 mph94%29.85 "Hg5 mi
8:54 AM73 °FFog.5 mph94%29.84 "Hg4 mi
7:54 AM72 °FFog.3 mph100%29.83 "Hg4 mi
6:54 AM71 °FFog.No wind100%29.82 "Hg4 mi
5:54 AM71 °FFog.No wind100%29.80 "Hg4 mi
4:54 AM71 °FFog.No wind100%29.80 "Hg4 mi
3:54 AM71 °FFog.No wind100%29.81 "Hg6 mi
2:54 AM71 °FFog.3 mph100%29.80 "Hg6 mi
1:54 AM72 °FMostly cloudy.3 mph97%29.80 "Hg8 mi
Weather by CustomWeather, © 2014

See weather overviewHow to use our weather pages